Starlink 32111

decayed
NORAD ID: 60073 Int'l Des: 2024-113 Owner: SPXS Country: US Constellation: starlink
LEOCIRCULAR
グループ

Starlink 32111について

説明を読み込み中...

高度履歴

Altitude vs Time

uPlot chart will show altitude changes over time

軌道要素

1 60073U 24113Q 24194.84166843 .08576806 12535-4 42677-3 0 9996
2 60073 53.1448 289.6441 0008547 326.2462 135.8187 16.42298544 4604
Epoch: Jul 12, 2024 • Age: 12621 hours

現在のステータス

Position data unavailable
打ち上げ日 Jun 19, 2024
運用期間 1.5 years
落下予定日 Jul 13, 2024
タイプ internet

技術仕様

分類 Payload
質量 730.00 kg
乾燥質量 700.00 kg
総質量 730.00 kg
長さ 0.30 m
直径 4.10 m
スパン 29.00 m
形状 Box + pan
製造者 SPXS
バスタイプ Starlink V2M
フェーズステータス Unknown Transfer Status
所有者/国 SPXS/US

大規模コンステレーション

Loading constellations...